Location: Cabeza de los Veneras
(40.2000°N, 5.2000°W)
Time: 12:20:42
(UTC+00:00)

Cosmos 1898 Rocket - Pass Details

Date: 18 April 2024
Orbit: 752 x 781 km, 74.0° (Epoch: 27 May)

Event Time Altitude Azimuth Distance (km) Brightness Sun altitude
Rises 22:10:33 0° 343° (NNW) 3,244 7.7 -30.5°
Reaches altitude 10° 22:12:58 10° 346° (NNW) 2,309 6.7 -30.7°
Enters shadow 22:16:38 44° 4° (N) 1,042 4.4 -31.2°
